Regional Weather Roundup
Issued by NWS

Home | Current Version | Previous Version | Graphics & Text | Print | Product List | Glossary On
Versions: 1 2 3 4 5 6 7 8 9 10 11 12 13 14 15 16 17 18 19 20 21 22 23 24 25 26 27 28 29 30 31 32 33 34 35 36 37 38 39 40 41 42 43 44 45 46 47 48 49 50
000
ASUS43 KFSD 031310
RWRSD

WEATHER ROUNDUP FOR SOUTH DAKOTA
NATIONAL WEATHER SERVICE SIOUX FALLS SD
700 AM CST SAT DEC 03 2016

NOTE: "FAIR" INDICATES FEW OR NO CLOUDS BELOW 12,000 FEET WITH NO
SIGNIFICANT WEATHER AND/OR OBSTRUCTIONS TO VISIBILITY.


SDZ001>005-009-010-012>017-031400-
NORTHWEST AND NORTH CENTRAL SOUTH DAKOTA

CITY           SKY/WX    TMP DP  RH WIND       PRES   REMARKS
BUFFALO          N/A     18  15  88 SW6       29.83S WCI  10
FAITH            N/A     19  17  92 SE15      29.94F WCI   5
MOBRIDGE       CLOUDY    25  22  88 S18       30.02F WCI  11
$$

SDZ012>016-024>037-041>051-057-063-072>074-031400-
SOUTHWEST AND SOUTH CENTRAL SOUTH DAKOTA

CITY           SKY/WX    TMP DP  RH WIND       PRES   REMARKS
RAPID CTY ARPT CLEAR     19  15  84 CALM      29.92F
PIERRE         CLOUDY    24  22  91 SE9       30.06F WCI  14
CUSTER         CLEAR     19  12  74 W9        29.85F WCI   8
ELLSWORTH AFB  CLEAR     23  20  87 S7        29.90F WCI  14
PHILIP         MOCLDY    18  16  92 E8        29.99F WCI   8
PINE RIDGE     CLEAR     28  23  81 S15       29.97F WCI  16
SPEARFISH      FAIR      28  12  50 N5        29.87F WCI  23
WINNER         CLOUDY    33  26  75 S15       30.09F WCI  23
$$

SDZ004>011-016>023-039-040-031400-
NORTHEAST SOUTH DAKOTA

CITY           SKY/WX    TMP DP  RH WIND       PRES   REMARKS
ABERDEEN       CLEAR     24  21  88 SE8       30.17F WCI  15
WATERTOWN      CLOUDY    23  21  92 SE7       30.18F WCI  15
BROOKINGS      CLEAR     24  21  88 SE8       30.20F WCI  15
SISSETON         N/A     23  19  85 S6        30.22F WCI  16
$$

SDZ017-020-022-023-036>040-048>070-031400-
SOUTHEAST SOUTH DAKOTA

CITY           SKY/WX    TMP DP  RH WIND       PRES   REMARKS
SIOUX FALLS    PTCLDY    28  26  92 SE6       30.22F WCI  22
HURON          CLEAR     25  24  96 SE9       30.17F WCI  15
CHAMBERLAIN    CLOUDY    26  26  99 SE3       30.11F
MITCHELL       CLEAR     26  25  96 SE9       30.18F WCI  17
YANKTON        PTCLDY    25  21  86 E6        30.22S WCI  18
$$

ABBREVIATIONS USED IN REMARKS
   TC - TEMPERATURE IN CELSIUS
  WCI - WIND CHILL INDEX
   HX - HEAT INDEX
  VSB - VISIBILITY





USA.gov is the U.S. government's official web portal to all federal, state and local government web resources and services.